Time,TemperatureF,DewpointF,PressureIn,WindDirection,WindDirectionDegrees,WindSpeedMPH,WindSpeedGustMPH,Humidity,HourlyPrecipIn,Conditions,Clouds,dailyrainin,SoftwareType,DateUTC
2013-03-27 00:00:00,20.9,19.0,30.14,West,262,3.0,-999.0,91,-99.99,,,0.00,weatherlink.com 1.10,2013-03-27 04:00:00,
2013-03-27 00:15:00,20.8,19.0,30.14,West,272,7.0,-999.0,91,-99.99,,,0.00,weatherlink.com 1.10,2013-03-27 04:15:00,
2013-03-27 00:30:00,20.6,19.0,30.14,NNW,332,5.0,-999.0,92,-99.99,,,0.00,weatherlink.com 1.10,2013-03-27 04:30:00,
2013-03-27 00:45:00,20.3,18.0,30.14,WNW,296,5.0,-999.0,92,-99.99,,,0.00,weatherlink.com 1.10,2013-03-27 04:45:00,
2013-03-27 00:59:00,20.1,18.0,30.14,West,275,9.0,-999.0,92,-99.99,,,0.00,weatherlink.com 1.10,2013-03-27 04:59:00,
2013-03-27 01:15:00,19.8,18.0,30.14,WSW,242,6.0,-999.0,92,-99.99,,,0.00,weatherlink.com 1.10,2013-03-27 05:15:00,
2013-03-27 01:30:00,19.6,18.0,30.14,WSW,245,5.0,-999.0,92,-99.99,,,0.00,weatherlink.com 1.10,2013-03-27 05:30:00,
2013-03-27 01:45:00,19.5,18.0,30.14,WNW,302,5.0,-999.0,92,-99.99,,,0.00,weatherlink.com 1.10,2013-03-27 05:45:00,
2013-03-27 02:00:00,19.4,18.0,30.14,WSW,250,5.0,-999.0,92,-99.99,,,0.00,weatherlink.com 1.10,2013-03-27 06:00:00,
2013-03-27 02:15:00,19.3,17.0,30.13,SW,231,7.0,-999.0,92,-99.99,,,0.00,weatherlink.com 1.10,2013-03-27 06:15:00,
2013-03-27 02:30:00,19.1,17.0,30.13,West,263,12.0,-999.0,92,-99.99,,,0.00,weatherlink.com 1.10,2013-03-27 06:30:00,
2013-03-27 02:45:00,18.9,17.0,30.13,West,277,9.0,-999.0,92,-99.99,,,0.00,weatherlink.com 1.10,2013-03-27 06:45:00,
2013-03-27 03:00:00,18.7,17.0,30.12,WSW,250,7.0,-999.0,92,-99.99,,,0.00,weatherlink.com 1.10,2013-03-27 07:00:00,
2013-03-27 03:16:00,18.6,17.0,30.11,West,271,6.0,-999.0,92,-99.99,,,0.00,weatherlink.com 1.10,2013-03-27 07:16:00,
2013-03-27 03:31:00,18.6,17.0,30.11,WSW,257,10.0,-999.0,92,-99.99,,,0.00,weatherlink.com 1.10,2013-03-27 07:31:00,
2013-03-27 03:46:00,18.6,17.0,30.11,WSW,248,9.0,-999.0,92,-99.99,,,0.00,weatherlink.com 1.10,2013-03-27 07:46:00,
2013-03-27 04:01:00,18.7,17.0,30.11,West,262,7.0,-999.0,92,-99.99,,,0.00,weatherlink.com 1.10,2013-03-27 08:01:00,
2013-03-27 04:16:00,18.7,17.0,30.10,West,269,8.0,-999.0,92,-99.99,,,0.00,weatherlink.com 1.10,2013-03-27 08:16:00,
2013-03-27 04:31:00,18.7,17.0,30.11,SW,233,6.0,-999.0,92,-99.99,,,0.00,weatherlink.com 1.10,2013-03-27 08:31:00,
2013-03-27 04:46:00,18.8,17.0,30.10,WNW,300,2.0,-999.0,92,-99.99,,,0.00,weatherlink.com 1.10,2013-03-27 08:46:00,
2013-03-27 05:01:00,18.9,17.0,30.11,West,265,6.0,-999.0,92,-99.99,,,0.00,weatherlink.com 1.10,2013-03-27 09:01:00,
2013-03-27 06:01:00,19.1,17.0,30.12,WSW,248,7.0,-999.0,92,-99.99,,,0.00,weatherlink.com 1.10,2013-03-27 10:01:00,
2013-03-27 06:31:00,19.0,17.0,30.12,West,276,5.0,-999.0,92,-99.99,,,0.00,weatherlink.com 1.10,2013-03-27 10:31:00,
2013-03-27 07:01:00,18.9,17.0,30.13,WSW,257,6.0,-999.0,92,-99.99,,,0.00,weatherlink.com 1.10,2013-03-27 11:01:00,
2013-03-27 07:31:00,18.8,17.0,30.14,WSW,250,10.0,-999.0,92,-99.99,,,0.00,weatherlink.com 1.10,2013-03-27 11:31:00,
2013-03-27 07:46:00,18.8,17.0,30.14,West,261,5.0,-999.0,92,-99.99,,,0.00,weatherlink.com 1.10,2013-03-27 11:46:00,
2013-03-27 08:01:00,18.7,17.0,30.15,West,265,5.0,-999.0,92,-99.99,,,0.00,weatherlink.com 1.10,2013-03-27 12:01:00,
2013-03-27 08:31:00,18.6,17.0,30.17,West,259,10.0,-999.0,92,-99.99,,,0.00,weatherlink.com 1.10,2013-03-27 12:31:00,
2013-03-27 08:46:00,18.6,17.0,30.17,West,265,7.0,-999.0,92,-99.99,,,0.00,weatherlink.com 1.10,2013-03-27 12:46:00,
2013-03-27 09:01:00,18.6,17.0,30.17,West,263,7.0,-999.0,92,-99.99,,,0.00,weatherlink.com 1.10,2013-03-27 13:01:00,
2013-03-27 09:16:00,19.2,18.0,30.17,East,86,3.0,-999.0,94,-99.99,,,0.00,weatherlink.com 1.10,2013-03-27 13:16:00,
2013-03-27 09:31:00,19.4,18.0,30.18,South,182,7.0,-999.0,94,-99.99,,,0.00,weatherlink.com 1.10,2013-03-27 13:31:00,
2013-03-27 09:46:00,19.3,18.0,30.18,WSW,248,2.0,-999.0,94,-99.99,,,0.00,weatherlink.com 1.10,2013-03-27 13:46:00,
2013-03-27 10:01:00,19.3,18.0,30.18,WNW,290,0.0,-999.0,94,-99.99,,,0.00,weatherlink.com 1.10,2013-03-27 14:01:00,
2013-03-27 10:16:00,18.7,17.0,30.19,WNW,298,5.0,-999.0,92,-99.99,,,0.00,weatherlink.com 1.10,2013-03-27 14:16:00,
2013-03-27 10:31:00,18.8,17.0,30.18,WSW,256,7.0,-999.0,92,-99.99,,,0.00,weatherlink.com 1.10,2013-03-27 14:31:00,
2013-03-27 10:46:00,19.0,17.0,30.19,SW,232,7.0,-999.0,92,-99.99,,,0.00,weatherlink.com 1.10,2013-03-27 14:46:00,
2013-03-27 11:01:00,19.1,17.0,30.19,West,280,8.0,-999.0,92,-99.99,,,0.00,weatherlink.com 1.10,2013-03-27 15:01:00,
2013-03-27 11:16:00,19.1,17.0,30.19,West,268,13.0,-999.0,92,-99.99,,,0.00,weatherlink.com 1.10,2013-03-27 15:16:00,
2013-03-27 11:31:00,19.0,17.0,30.20,SW,235,6.0,-999.0,92,-99.99,,,0.00,weatherlink.com 1.10,2013-03-27 15:31:00,
2013-03-27 11:46:00,19.1,17.0,30.20,WSW,246,9.0,-999.0,92,-99.99,,,0.00,weatherlink.com 1.10,2013-03-27 15:46:00,
2013-03-27 12:01:00,19.3,17.0,30.20,WSW,255,7.0,-999.0,92,-99.99,,,0.00,weatherlink.com 1.10,2013-03-27 16:01:00,
2013-03-27 12:16:00,19.5,18.0,30.20,WSW,242,8.0,-999.0,92,-99.99,,,0.00,weatherlink.com 1.10,2013-03-27 16:16:00,
2013-03-27 12:31:00,19.7,18.0,30.21,West,261,7.0,-999.0,92,-99.99,,,0.00,weatherlink.com 1.10,2013-03-27 16:31:00,
2013-03-27 12:46:00,19.9,18.0,30.21,WSW,248,5.0,-999.0,92,-99.99,,,0.00,weatherlink.com 1.10,2013-03-27 16:46:00,
2013-03-27 13:01:00,20.1,18.0,30.21,West,271,2.0,-999.0,92,-99.99,,,0.00,weatherlink.com 1.10,2013-03-27 17:01:00,
2013-03-27 13:16:00,20.3,18.0,30.21,West,267,7.0,-999.0,91,-99.99,,,0.00,weatherlink.com 1.10,2013-03-27 17:16:00,
2013-03-27 13:35:00,20.5,18.0,30.21,SW,221,6.0,-999.0,91,-99.99,,,0.00,weatherlink.com 1.10,2013-03-27 17:35:00,
2013-03-27 13:47:00,20.5,19.0,30.22,SW,234,11.0,-999.0,92,-99.99,,,0.00,weatherlink.com 1.10,2013-03-27 17:47:00,
2013-03-27 14:01:00,20.6,19.0,30.22,West,262,6.0,-999.0,92,-99.99,,,0.00,weatherlink.com 1.10,2013-03-27 18:01:00,
2013-03-27 14:16:00,20.8,19.0,30.22,West,276,1.0,-999.0,91,-99.99,,,0.00,weatherlink.com 1.10,2013-03-27 18:16:00,
2013-03-27 14:31:00,20.9,19.0,30.22,WSW,237,3.0,-999.0,91,-99.99,,,0.00,weatherlink.com 1.10,2013-03-27 18:31:00,
2013-03-27 15:02:00,21.0,19.0,30.22,SW,227,5.0,-999.0,91,-99.99,,,0.00,weatherlink.com 1.10,2013-03-27 19:02:00,
2013-03-27 15:17:00,21.2,19.0,30.21,WSW,254,7.0,-999.0,91,-99.99,,,0.00,weatherlink.com 1.10,2013-03-27 19:17:00,
2013-03-27 15:47:00,21.2,19.0,30.20,WSW,252,18.0,-999.0,91,-99.99,,,0.00,weatherlink.com 1.10,2013-03-27 19:47:00,
2013-03-27 16:02:00,21.4,19.0,30.20,WNW,303,5.0,-999.0,91,-99.99,,,0.00,weatherlink.com 1.10,2013-03-27 20:02:00,
2013-03-27 16:32:00,21.8,20.0,30.20,WSW,240,6.0,-999.0,91,-99.99,,,0.00,weatherlink.com 1.10,2013-03-27 20:32:00,
2013-03-27 16:47:00,22.1,20.0,30.20,WSW,253,10.0,-999.0,90,-99.99,,,0.00,weatherlink.com 1.10,2013-03-27 20:47:00,
2013-03-27 17:02:00,22.4,20.0,30.21,West,259,9.0,-999.0,91,-99.99,,,0.00,weatherlink.com 1.10,2013-03-27 21:02:00,
2013-03-27 17:17:00,22.5,20.0,30.21,WSW,251,8.0,-999.0,90,-99.99,,,0.00,weatherlink.com 1.10,2013-03-27 21:17:00,
2013-03-27 17:32:00,22.4,20.0,30.21,WSW,255,7.0,-999.0,91,-99.99,,,0.00,weatherlink.com 1.10,2013-03-27 21:32:00,
2013-03-27 17:47:00,22.3,20.0,30.22,SW,229,4.0,-999.0,91,-99.99,,,0.00,weatherlink.com 1.10,2013-03-27 21:47:00,
2013-03-27 18:02:00,22.2,20.0,30.22,WSW,254,5.0,-999.0,91,-99.99,,,0.00,weatherlink.com 1.10,2013-03-27 22:02:00,
2013-03-27 18:17:00,22.1,20.0,30.22,WNW,303,4.0,-999.0,91,-99.99,,,0.00,weatherlink.com 1.10,2013-03-27 22:17:00,
2013-03-27 18:32:00,21.9,20.0,30.22,WSW,249,9.0,-999.0,91,-99.99,,,0.00,weatherlink.com 1.10,2013-03-27 22:32:00,
2013-03-27 18:47:00,21.8,20.0,30.23,NW,310,3.0,-999.0,91,-99.99,,,0.00,weatherlink.com 1.10,2013-03-27 22:47:00,
2013-03-27 19:02:00,21.7,20.0,30.23,WNW,284,7.0,-999.0,91,-99.99,,,0.00,weatherlink.com 1.10,2013-03-27 23:02:00,
2013-03-27 19:17:00,21.6,19.0,30.23,West,281,6.0,-999.0,91,-99.99,,,0.00,weatherlink.com 1.10,2013-03-27 23:17:00,
2013-03-27 19:32:00,21.5,19.0,30.23,WNW,286,6.0,-999.0,91,-99.99,,,0.00,weatherlink.com 1.10,2013-03-27 23:32:00,
2013-03-27 19:47:00,21.5,19.0,30.23,WSW,242,5.0,-999.0,91,-99.99,,,0.00,weatherlink.com 1.10,2013-03-27 23:47:00,
2013-03-27 20:02:00,21.3,19.0,30.23,WSW,240,6.0,-999.0,91,-99.99,,,0.00,weatherlink.com 1.10,2013-03-28 00:02:00,
2013-03-27 20:17:00,21.2,19.0,30.24,West,275,8.0,-999.0,91,-99.99,,,0.00,weatherlink.com 1.10,2013-03-28 00:17:00,
2013-03-27 20:32:00,21.1,19.0,30.24,WNW,300,12.0,-999.0,91,-99.99,,,0.00,weatherlink.com 1.10,2013-03-28 00:32:00,
2013-03-27 20:47:00,21.1,19.0,30.24,WSW,256,6.0,-999.0,91,-99.99,,,0.00,weatherlink.com 1.10,2013-03-28 00:47:00,
2013-03-27 21:02:00,21.1,19.0,30.24,West,265,7.0,-999.0,91,-99.99,,,0.00,weatherlink.com 1.10,2013-03-28 01:02:00,
2013-03-27 21:17:00,21.1,19.0,30.25,West,259,13.0,-999.0,91,-99.99,,,0.00,weatherlink.com 1.10,2013-03-28 01:17:00,
2013-03-27 21:32:00,21.1,19.0,30.25,WSW,245,4.0,-999.0,91,-99.99,,,0.00,weatherlink.com 1.10,2013-03-28 01:32:00,
2013-03-27 21:47:00,21.1,19.0,30.26,West,273,6.0,-999.0,91,-99.99,,,0.00,weatherlink.com 1.10,2013-03-28 01:47:00,
2013-03-27 22:02:00,21.0,19.0,30.25,WSW,250,11.0,-999.0,91,-99.99,,,0.00,weatherlink.com 1.10,2013-03-28 02:02:00,
2013-03-27 22:17:00,21.0,19.0,30.25,WSW,249,10.0,-999.0,91,-99.99,,,0.00,weatherlink.com 1.10,2013-03-28 02:17:00,
2013-03-27 22:32:00,20.9,19.0,30.25,West,261,7.0,-999.0,91,-99.99,,,0.00,weatherlink.com 1.10,2013-03-28 02:32:00,
2013-03-27 22:47:00,20.8,19.0,30.25,WSW,244,20.0,-999.0,92,-99.99,,,0.00,weatherlink.com 1.10,2013-03-28 02:47:00,
2013-03-27 23:02:00,20.8,19.0,30.25,West,262,4.0,-999.0,92,-99.99,,,0.00,weatherlink.com 1.10,2013-03-28 03:02:00,
2013-03-27 23:17:00,20.7,19.0,30.25,WSW,241,4.0,-999.0,92,-99.99,,,0.00,weatherlink.com 1.10,2013-03-28 03:17:00,
2013-03-27 23:32:00,20.7,19.0,30.25,West,264,11.0,-999.0,92,-99.99,,,0.00,weatherlink.com 1.10,2013-03-28 03:32:00,
2013-03-27 23:47:00,20.7,19.0,30.24,West,269,5.0,-999.0,92,-99.99,,,0.00,weatherlink.com 1.10,2013-03-28 03:47:00,